[[{"header":{"parameterUnit":"m.s-1","parameterCategory":1,"la1":30.2992,"la2":30.254,"lo1":-89.0895,"lo2":-89.0443,"dy":0.0025,"dx":0.0025,"nx":19,"ny":19,"refTime":"2026-05-02T09:00:00:Z","depth":0,"parameterNumber":2,"parameterNumberName":"U-component_of_WINDS"},"data":[0,0,0,0.193,0.1928,0.1839,0.1839,0.1742,0.1742,0,0,0,0,0,0,0,0,0,0,0,0.1968,0.1967,0.193,0.1928,0.1839,0.1838,0.1742,0.1742,0,0,0,0,0,0,0,0,0,0,0,0.1968,0.1968,0.1967,0.1928,0.1839,0.1838,0.1743,0.1803,0,0,0,0,0,0,0,0,0,0,0.1887,0.1933,0.1968,0.1967,0.1927,0.1839,0.1838,0.1806,0.18,0.1791,0,0.1786,0,0.1763,0.1736,0.1736,0,0,0,0.1919,0.1938,0.1904,0.1967,0.1927,0.1839,0.1877,0.1802,0.1795,0.1782,0.1785,0.178,0.1761,0.1736,0.1735,0.1715,0.1715,0,0,0.1924,0.1957,0.1909,0.19,0.1916,0.188,0.1874,0.1798,0.1802,0.1784,0.1778,0.1759,0.1735,0.1735,0.1714,0.1715,0,0,0,0.1944,0.1961,0.1928,0.1905,0.1887,0.1877,0.1871,0.1805,0.1792,0.1777,0.1758,0.1735,0.1734,0.1714,0.1715,0.1763,0,0,0,0.1947,0.1973,0.1931,0.1951,0.1889,0.1845,0.1881,0.1797,0.1788,0.1759,0.1735,0.1733,0.1714,0.1714,0.176,0.1779,0,0,0,0.197,0.1975,0.1967,0.1953,0.1915,0.1846,0.1828,0.1794,0.1777,0.1736,0.1733,0.1713,0.1714,0.1758,0.1776,0.1784,0,0,0,0.2003,0.201,0.1968,0.1968,0.1916,0.1877,0.1828,0.1796,0.1767,0.1734,0.1714,0.1715,0.1758,0.1774,0.1782,0.1796,0.1805,0,0,0.203,0.2014,0.2011,0.1971,0.1948,0.1888,0.187,0.1811,0.1777,0.1737,0.1736,0.1761,0.1776,0.1783,0.1845,0.1853,0,0,0,0.2031,0.203,0.2016,0.1991,0.1947,0.1911,0.1852,0.183,0.1795,0.1764,0.1765,0.1773,0.1776,0.1781,0.1787,0.1788,0.1719,0.1718,0.1718,0.2115,0.2072,0.2065,0.2011,0.1987,0.1927,0.1903,0.1864,0.1826,0.1827,0.1815,0.1858,0.1865,0.187,0.1871,0.1819,0.1819,0.182,0.182,0.215,0.2141,0.2093,0.2068,0.2023,0.2002,0.1944,0.1919,0.1892,0.1863,0.1864,0.1836,0.188,0.1878,0.1823,0.1822,0.1822,0.1822,0.1821,0.22,0.2188,0.2163,0.2122,0.2096,0.2041,0.2019,0.1977,0.1938,0.1939,0.1922,0.1921,0.1914,0.1934,0.1934,0.1934,0.1934,0.1934,0.1934,0.2261,0.2231,0.2217,0.2173,0.2152,0.2119,0.206,0.2037,0.2002,0.1974,0.1973,0.1936,0.1892,0.1882,0.1936,0.1936,0.1936,0.1936,0.1935,0.2311,0.2294,0.2273,0.2252,0.2197,0.2174,0.2122,0.2081,0.2057,0.2047,0.201,0.1984,0.1965,0.1959,0.1951,0.2019,0.2019,0.2019,0.2019,0.2353,0.234,0.231,0.2279,0.2244,0.2196,0.2174,0.2129,0.2079,0.2061,0.2045,0.203,0.2027,0.2009,0.2003,0.1994,0.2072,0.2072,0.2072,0.2382,0.2363,0.2352,0.2304,0.2259,0.2221,0.2199,0.2165,0.2105,0.2074,0.2047,0.2044,0.202,0.2014,0.1981,0.1972,0.1954,0,0]},{"header":{"parameterUnit":"m.s-1","parameterCategory":1,"la1":30.2992,"la2":30.254,"lo1":-89.0895,"lo2":-89.0443,"dy":0.0025,"dx":0.0025,"nx":19,"ny":19,"refTime":"2026-05-02T09:00:00:Z","depth":0,"parameterNumber":3,"parameterNumberName":"V-component_of_WINDS"},"data":[0,0,0,-0.9629,-0.9629,-0.9607,-0.9606,-0.9577,-0.9577,0,0,0,0,0,0,0,0,0,0,0,-0.9637,-0.9637,-0.963,-0.9629,-0.9607,-0.9606,-0.9578,-0.9577,0,0,0,0,0,0,0,0,0,0,0,-0.9637,-0.9637,-0.9637,-0.9629,-0.9607,-0.9606,-0.9578,-0.9594,0,0,0,0,0,0,0,0,0,0,-0.9616,-0.9625,-0.9637,-0.9637,-0.9629,-0.9607,-0.9606,-0.9595,-0.9593,-0.9588,0,-0.9584,0,-0.958,-0.9575,-0.9575,0,0,0,-0.9628,-0.9626,-0.9619,-0.9637,-0.9629,-0.9607,-0.9616,-0.9594,-0.9592,-0.9585,-0.9584,-0.9583,-0.958,-0.9575,-0.9575,-0.9549,-0.9549,0,0,-0.9629,-0.9634,-0.9621,-0.9618,-0.9623,-0.9617,-0.9616,-0.9593,-0.9591,-0.9584,-0.9582,-0.9579,-0.9575,-0.9575,-0.9549,-0.9549,0,0,0,-0.9633,-0.9634,-0.9628,-0.9619,-0.9615,-0.9616,-0.9615,-0.9592,-0.959,-0.9582,-0.9579,-0.9575,-0.9574,-0.9549,-0.9549,-0.955,0,0,0,-0.9634,-0.9637,-0.9629,-0.9631,-0.9616,-0.9604,-0.9615,-0.9591,-0.9589,-0.9579,-0.9575,-0.9574,-0.9549,-0.9549,-0.955,-0.9549,0,0,0,-0.9638,-0.9637,-0.9635,-0.9631,-0.9622,-0.9604,-0.96,-0.9591,-0.9587,-0.9575,-0.9574,-0.9549,-0.9549,-0.955,-0.9549,-0.9543,0,0,0,-0.9644,-0.9636,-0.9635,-0.9624,-0.9622,-0.9605,-0.96,-0.9587,-0.9577,-0.9575,-0.9549,-0.9549,-0.955,-0.9549,-0.9543,-0.9537,-0.9536,0,0,-0.9636,-0.9635,-0.9628,-0.9627,-0.9611,-0.9608,-0.9591,-0.9578,-0.9572,-0.9557,-0.9556,-0.955,-0.9549,-0.9543,-0.9527,-0.9526,0,0,0,-0.9627,-0.9622,-0.9617,-0.9608,-0.9598,-0.9589,-0.9577,-0.9572,-0.9559,-0.9566,-0.9546,-0.9545,-0.9541,-0.9538,-0.9537,-0.9533,-0.9548,-0.9548,-0.9548,-0.9622,-0.9616,-0.9604,-0.9595,-0.9586,-0.9574,-0.9565,-0.9556,-0.9552,-0.9548,-0.9543,-0.9534,-0.9531,-0.953,-0.9526,-0.954,-0.954,-0.954,-0.954,-0.9609,-0.9601,-0.9596,-0.9583,-0.9575,-0.9564,-0.9551,-0.9549,-0.9536,-0.9538,-0.9534,-0.9536,-0.9529,-0.9525,-0.954,-0.954,-0.954,-0.954,-0.954,-0.9605,-0.96,-0.9594,-0.9579,-0.9568,-0.9559,-0.9546,-0.954,-0.9534,-0.9531,-0.9524,-0.9524,-0.9522,-0.9528,-0.9528,-0.9528,-0.9528,-0.9528,-0.9528,-0.9602,-0.9595,-0.9586,-0.9574,-0.9567,-0.9556,-0.9543,-0.9535,-0.9525,-0.9521,-0.9521,-0.9517,-0.953,-0.9533,-0.9527,-0.9527,-0.9527,-0.9527,-0.9528,-0.9591,-0.9592,-0.9578,-0.9571,-0.9555,-0.9544,-0.9536,-0.952,-0.9513,-0.9507,-0.9503,-0.9514,-0.9513,-0.9513,-0.9516,-0.9505,-0.9505,-0.9505,-0.9505,-0.9586,-0.9585,-0.9569,-0.9557,-0.9545,-0.9536,-0.9519,-0.9508,-0.9496,-0.9491,-0.9492,-0.9494,-0.9495,-0.9493,-0.9494,-0.9496,-0.9481,-0.9481,-0.9481,-0.9579,-0.9575,-0.9563,-0.9552,-0.9539,-0.9527,-0.951,-0.9496,-0.9483,-0.948,-0.9486,-0.9487,-0.9492,-0.9494,-0.9491,-0.9493,-0.9496,0,0]}]]